Reflectivity
-20 -18 9 12 16 14 19 13 11 -2 5 15 14 16 12 14 -2 15 12 12 13 15 15 16 10 11 2 11 3 -20 -9 -20 -20 -20 -20 -20 -20 -16 -20 -20 -20 -17 -20
-20 -20 12 13 19 18 21 18 15 10 1 5 16 14 13 6 1 13 5 12 -5 11 7 8 10 9 -6 -13 -19 3 -20 -20 -20 -20 -20 -20 -20 -20 -20 -20 -20 -20 -20
-20 5 -17 15 19 18 18 20 18 16 7 2 7 14 13 12 3 4 14 14 10 -9 -4 8 8 11 10 8 4 -11 -18 -20 -20 -20 -20 -20 -20 -4 -20 -20 -20 -20 -20
-20 -8 5 13 18 18 18 17 18 15 10 12 13 14 15 16 19 18 12 13 1 14 14 11 6 8 2 -11 -8 2 -16 -20 -20 -20 -20 -20 -20 -20 -20 -20 -18 -20 -20
-20 -15 0 12 17 16 15 15 14 12 12 13 13 13 15 16 15 18 19 18 15 13 15 8 -7 8 7 6 10 4 -20 -20 -20 -20 -20 -20 -20 -20 -20 -20 -20 -16 -20
-20 -17 -12 -12 4 13 10 11 11 12 -19 11 -1 4 1 1 3 7 7 14 10 17 17 15 15 2 2 9 10 3 -14 -20 -20 -20 -20 -20 -20 -20 -20 -20 -20 -20 -20
-20 -20 -8 3 6 11 5 10 9 -20 -20 -20 -20 -20 -20 -6 -17 4 -12 -2 0 4 12 16 14 13 15 10 8 8 -9 -20 -20 -20 -20 -20 -20 -20 -20 -20 -20 -20 -20
-20 -20 -20 -7 -9 2 10 -5 -16 -20 -20 -20 -20 -20 -20 -20 -20 -20 -20 -20 -5 -5 -3 -1 6 9 -0 12 11 12 13 -20 -20 -20 -20 -20 -20 -20 -4 6 -14 -20 -20
-20 -20 -20 -20 -17 -19 -20 -20 -20 -20 -20 -20 -20 -20 -20 -20 -20 -20 -20 -20 -20 -20 -20 -20 -20 -20 -20 -20 -20 -11 11 10 -20 -20 -20 -20 -20 -20 -20 -20 -20 28 -20
-20 -20 -20 -20 -20 -20 -20 -20 -20 -20 -20 -20 -20 -20 -20 -20 -20 -20 -20 -20 -20 -20 -20 -20 3 -3 -20 -20 -20 -20 -20 -20 -20 -20 -20 -20 -20 13 -20 -20 -20 -20 -20
-20 -20 -20 -20 -20 -20 -20 -20 -20 -20 -20 -20 -20 -20 -20 -20 -20 -20 -20 -20 -20 -20 -20 -20 -18 -5 2 -20 -20 -20 -20 -20 -20 -20 -20 -17 -20 6 -11 29 -20 -20 -20
-20 -20 -20 -20 -20 -20 -20 -20 -20 -20 -20 -20 -20 -20 -20 -20 -20 -20 -20 -20 -20 -20 -20 -20 -20 -20 -20 -20 -20 -20 -20 -20 -20 -20 -20 11 6 -7 -3 9 15 -3 -7
-20 -20 -20 -20 -20 -20 -20 -20 -20 -20 -20 -20 -20 -20 -20 -20 -20 -20 -20 -20 -20 -20 -20 -20 -20 -20 -20 -20 -20 -20 -20 -20 -20 -20 -20 -7 4 6 17 12 11 7 12
-20 -20 -20 -20 -20 -20 -20 -20 -20 -20 -20 -20 -20 -20 -20 -20 -20 -20 -20 -20 -20 -20 -20 -20 -20 -20 -20 -20 -20 -20 -20 -20 -20 -20 -20 -20 -20 3 7 19 -17 -12 2
-20 -20 -20 -20 -20 -20 -20 -20 -20 -20 -20 -20 -20 -20 -20 -20 -20 -20 -20 -20 -20 -20 -20 -20 -20 -20 -20 -20 -20 -20 -20 -20 -20 -20 -20 -20 -20 0 1 -0 2 -2 17
-20 -20 -20 -20 -20 -20 -20 -20 -20 -20 -20 -20 -20 -20 -20 -20 -20 -20 -20 -20 -20 -20 -20 -20 -20 -20 -20 -20 -20 -20 -20 -20 -20 -20 -20 -20 -20 -13 8 12 9 7 9
-20 -20 -20 -20 -20 -20 -20 -20 -20 -20 -20 -20 -20 -20 -20 -20 -20 -20 -20 -20 -20 -20 -20 -20 -20 -20 -20 -20 -20 -20 -20 -20 -20 -20 -20 -20 -20 -20 13 16 16 15 10
-20 -20 -20 -20 -20 -20 -20 -20 -20 -20 -20 -20 -20 -20 -20 -20 -20 -20 -20 -20 -20 -20 -20 -20 -20 -20 -20 -20 -20 -20 -20 -20 -20 -20 -20 -20 -20 -20 -20 -20 -5 8 8
-20 -20 -20 -20 -20 -20 -20 -20 -20 -20 -20 -20 -20 -20 -20 -20 -20 -20 -20 -20 -20 -20 -20 -20 -20 -20 -20 -20 -20 -20 -20 -20 -20 -20 -20 -20 -20 -20 -20 -20 -20 -20 -20
-20 -20 -20 -20 -20 -20 -20 -20 -20 -20 -20 -20 -20 -20 -20 -20 -20 -20 -20 -20 -20 -20 -20 -20 -20 -20 -20 -20 -20 -20 -20 -20 -20 -20 -20 -20 -20 -20 -20 -20 -20 -20 -20
-20 -20 -20 -20 -20 -20 -20 -20 -20 -20 -20 -20 -20 -20 -20 -20 -20 -20 -20 -20 -20 -20 -20 -20 -20 -20 -20 -20 -20 -20 -20 -20 -20 -20 -20 -20 -20 -20 -20 -20 -20 -20 -20
-20 -20 -20 -20 -20 -20 -20 -20 -20 -20 -20 -20 -20 -20 -20 -20 -20 -20 -20 -20 -20 -20 -20 -20 -20 -20 -20 -20 -20 -20 -20 -20 -20 -20 -20 -20 -20 -20 -20 -20 -20 -20 -20
-20 -20 -20 -20 -20 -20 -20 -20 -20 -20 -20 -20 -20 -20 -20 -20 -20 -20 -20 -20 -20 -20 -20 -20 -20 -20 -20 -20 -20 -20 -20 -20 -20 -20 -20 -20 -20 -20 -20 -20 -20 -20 -20
-20 -20 -20 -20 -20 -20 -20 -20 -20 -20 -20 -20 -20 -20 -20 -20 -20 -20 -20 -20 -20 -20 -20 -20 -20 -20 -20 -20 -20 -20 -20 -14 -9 -20 -20 -20 -20 -20 -20 -20 -20 -20 -20
-20 -20 -20 -20 -20 -20 -20 -20 -20 -20 -20 -20 -20 -20 -20 -20 -20 -20 -20 -20 -20 -20 -20 -20 -20 -20 -20 -20 -20 -20 -20 -20 -20 -16 -20 -20 -20 -20 -20 -20 -20 -20 -20
-19 -14 -20 -20 -20 -20 -20 -20 -20 -20 -20 -20 -20 -20 -20 -20 -20 -20 -20 -20 -20 -20 -20 -20 -20 -20 -20 -20 -20 -20 -20 -20 -20 -2 -15 -20 -20 -20 -20 -20 -20 -20 -20
Wind_Speed
10 14 23 27 24 25 25 25 25 24 24 23 22 21 20 21 22 20 19 18 17 16 17 17 17 18 17 16 15 14 13 14 13 13 12 11 10 11 10 10 8 11 11
10 13 21 25 22 22 23 23 24 24 24 25 24 22 22 23 22 22 21 20 19 19 18 17 18 18 17 17 15 14 14 14 13 10 9 9 9 9 9 8 7 9 10
10 12 15 21 21 20 22 22 22 23 24 23 24 24 23 22 23 22 23 22 21 20 19 20 19 17 17 16 15 15 14 14 12 10 8 7 6 6 7 5 5 7 8
10 11 14 18 19 20 20 21 22 22 23 22 22 23 23 22 22 22 22 22 23 23 22 20 19 19 18 17 16 16 16 14 13 10 6 7 7 5 4 4 3 5 5
10 11 13 17 18 19 19 20 21 22 22 21 21 22 22 22 22 22 23 22 22 22 22 22 22 21 18 18 18 17 15 14 12 9 8 8 7 5 1 2 2 3 3
10 11 13 16 17 18 20 20 21 21 22 21 21 21 22 22 23 23 24 23 23 22 21 21 21 21 22 21 20 20 18 16 9 9 8 9 8 12 2 2 0 2 2
10 9 10 15 16 19 19 20 21 21 21 20 20 21 21 22 23 23 24 23 23 23 23 22 22 21 21 21 20 20 19 15 11 9 8 8 8 13 5 1 1 1 3
10 10 10 13 16 18 18 20 21 21 21 21 21 21 21 22 23 23 23 24 23 23 23 23 22 21 20 21 22 22 21 16 9 9 9 7 10 12 10 4 1 2 4
10 10 10 10 12 14 19 19 20 21 21 21 22 22 20 22 22 23 23 24 23 24 23 23 22 22 20 21 22 22 21 19 12 9 9 7 13 13 10 8 5 3 3
10 10 10 10 10 10 10 18 19 20 21 22 22 22 21 20 22 23 23 23 24 23 23 23 23 23 21 21 22 22 19 16 13 11 8 10 19 13 11 11 10 8 7
8 11 10 10 10 10 10 11 14 17 20 20 18 21 16 12 14 17 21 23 24 23 23 23 23 22 21 19 21 21 16 8 10 8 7 21 22 17 12 10 11 11 11
9 9 9 10 10 9 8 9 10 10 10 12 13 14 10 12 13 13 16 22 22 23 22 22 23 21 17 11 10 14 8 11 8 9 7 21 23 19 14 12 12 13 12
5 6 9 8 8 9 7 6 5 6 7 8 14 12 10 9 10 10 8 9 11 18 11 14 14 11 15 11 10 9 10 9 7 7 10 20 22 21 17 13 10 11 13
5 7 8 8 8 9 5 6 7 7 7 7 9 12 9 7 9 9 8 10 10 10 12 12 9 12 13 13 12 12 11 8 7 6 10 20 21 21 20 19 17 16 15
5 5 7 7 7 7 8 6 7 7 7 8 8 11 9 8 8 8 9 9 9 9 10 10 11 11 12 12 11 11 12 12 11 7 7 18 21 21 22 22 20 17 16
4 4 5 7 8 7 8 9 6 6 7 7 8 9 11 8 8 8 8 8 9 9 9 9 10 9 9 10 11 12 12 11 11 11 8 9 18 20 22 21 21 21 20
4 3 4 5 6 7 7 7 7 7 7 7 7 10 11 10 9 9 8 8 9 9 10 9 10 9 9 10 11 10 10 11 10 12 10 10 12 20 24 25 24 22 21
6 5 4 4 5 6 6 5 5 6 6 7 7 7 11 11 10 9 8 9 9 8 9 9 10 9 10 10 10 9 8 8 10 12 12 11 12 11 15 25 25 22 23
5 5 4 5 5 5 5 5 6 8 7 7 7 7 9 9 9 7 7 7 8 8 9 8 8 9 11 12 10 8 6 6 10 9 15 14 16 12 11 19 24 23 23
4 3 4 4 5 4 3 4 4 6 6 6 6 6 8 6 9 6 7 8 7 8 9 9 9 8 9 10 9 8 5 3 9 9 12 12 14 15 15 15 13 14 22
4 4 3 3 4 3 1 2 2 3 3 4 5 7 7 7 8 9 6 8 8 10 10 11 9 9 10 12 5 5 6 4 12 10 10 12 13 16 15 15 11 10 13
7 5 4 4 5 4 2 2 1 1 2 3 4 6 8 8 10 9 9 9 10 8 10 12 12 7 7 12 8 4 6 4 9 6 9 12 15 13 14 15 14 18 14
8 7 5 4 4 5 4 2 2 1 1 1 4 4 8 9 10 10 10 8 8 8 8 10 11 13 8 8 13 6 5 5 11 4 9 10 17 12 13 14 17 16 16
9 7 6 5 5 4 4 3 3 2 3 1 1 3 5 9 9 10 10 9 9 7 9 8 8 8 8 9 3 7 5 3 5 9 7 8 13 13 15 12 13 14 16
10 8 7 6 6 4 4 4 3 4 3 2 1 4 6 6 8 9 9 8 8 6 7 8 8 9 6 5 6 5 4 4 3 5 9 14 11 11 12 12 13 12 14
9 9 8 8 6 6 4 4 4 5 4 3 3 3 4 3 5 8 8 7 7 6 7 6 7 7 6 5 4 5 4 4 6 5 8 11 15 12 13 9 10 11 12
Wind_Direction
344 340 337 340 0 7 11 22 28 33 29 30 33 40 43 44 42 40 39 40 39 40 39 37 39 39 37 41 43 41 46 49 43 39 39 37 46 75 76 73 71 74 80
340 342 338 337 2 12 16 22 31 34 32 29 29 36 39 42 39 36 38 33 38 35 36 35 35 34 33 34 35 40 37 36 31 32 32 37 26 69 70 67 68 82 79
359 350 331 339 4 17 21 25 32 36 35 32 28 31 37 41 40 34 35 32 35 35 33 31 34 33 30 31 31 32 32 33 29 29 23 38 33 39 68 67 69 84 83
10 356 335 0 8 19 25 29 31 36 38 35 33 32 36 39 41 38 37 34 32 31 33 29 29 29 29 27 27 29 29 24 22 12 20 21 11 2 66 78 66 84 90
23 7 337 8 11 22 27 31 33 35 38 36 35 34 34 37 37 39 37 34 33 31 31 30 25 26 26 25 26 24 21 19 19 15 7 11 3 11 14 66 100 101 102
26 19 350 13 16 25 30 32 36 36 39 37 36 35 34 37 35 35 34 30 31 30 29 29 28 25 24 24 25 18 11 12 5 15 9 7 359 348 306 57 36 139 142
26 24 8 16 19 27 32 35 37 37 40 41 40 39 39 37 37 34 34 30 28 27 26 26 27 26 23 18 19 15 9 2 7 10 8 4 356 346 344 157 220 156 180
27 23 23 15 25 23 33 36 37 37 38 39 40 41 39 40 39 37 34 31 28 27 27 23 24 23 24 22 17 13 14 13 18 12 2 359 352 345 358 352 250 214 200
33 31 21 19 21 25 26 33 36 38 38 38 41 39 39 39 36 37 33 32 31 28 27 25 21 18 20 22 20 15 12 14 11 3 1 358 342 340 353 3 354 298 255
39 33 26 23 18 22 30 31 33 35 36 35 34 36 36 35 33 30 32 28 31 31 28 25 22 18 16 18 18 16 11 11 2 2 4 1 342 351 9 12 12 358 331
38 32 25 26 22 21 38 24 28 30 34 33 29 27 30 29 27 27 25 25 27 26 26 25 22 18 13 14 13 11 12 8 1 355 351 356 354 347 6 7 13 13 3
35 27 24 26 26 27 33 25 29 28 33 31 29 28 29 29 26 28 24 24 22 22 20 20 18 20 16 12 4 7 6 356 358 348 343 350 354 350 356 10 19 18 9
50 39 27 27 30 34 33 32 30 35 32 30 30 29 30 32 26 27 19 16 14 15 16 14 14 16 11 11 5 2 356 356 352 340 342 346 351 354 356 0 5 14 10
60 41 30 27 34 37 39 39 36 35 37 35 30 27 29 31 29 28 27 21 19 13 12 14 10 6 9 5 2 356 356 356 347 339 336 340 342 349 351 350 356 359 359
81 53 39 34 37 38 44 41 42 43 40 35 32 30 29 33 32 28 28 26 23 14 15 11 8 6 4 359 356 354 354 352 354 348 338 339 342 344 346 346 347 352 350
103 64 47 44 37 39 45 43 39 41 37 40 37 30 30 33 29 29 29 26 24 17 14 10 7 3 359 353 351 351 351 355 352 355 349 345 350 354 351 346 346 346 344
118 85 61 64 46 51 50 48 47 39 40 41 38 35 35 34 33 33 30 28 21 16 15 11 12 10 1 354 351 352 353 353 3 11 14 13 6 10 6 4 357 353 350
151 129 89 68 64 66 63 57 56 46 47 42 35 31 31 31 29 36 34 28 16 20 17 14 12 8 4 354 342 349 353 0 18 17 27 18 24 8 9 9 4 2 358
146 140 111 81 69 83 88 82 66 55 47 38 34 30 25 31 29 40 38 29 24 27 25 16 19 14 5 350 336 345 352 15 23 23 22 24 12 11 8 2 359 354 354
139 108 99 82 56 78 100 83 65 59 51 38 37 33 22 24 30 37 45 37 33 34 31 20 20 24 14 347 321 330 341 36 17 33 21 18 11 16 358 356 352 346 353
158 144 122 102 50 66 105 117 82 59 43 50 42 29 25 23 30 35 39 37 32 37 29 24 15 18 18 359 327 346 337 25 28 29 16 9 13 0 360 357 352 347 340
171 165 140 101 71 59 66 73 58 93 59 41 28 33 28 25 29 34 32 34 31 31 31 28 26 22 23 21 1 326 6 343 17 358 10 360 5 353 356 354 347 345 343
183 174 153 118 85 61 33 112 112 110 145 358 22 30 27 28 30 32 31 32 31 33 31 26 23 29 22 32 37 25 353 354 330 346 1 353 355 349 348 345 347 343 342
185 166 145 141 121 80 50 89 177 197 153 109 17 26 30 30 31 31 30 27 28 29 32 24 26 28 21 30 38 35 25 312 346 324 336 352 346 346 342 338 336 338 339
161 161 150 141 134 114 93 95 113 118 124 137 92 54 42 38 34 25 27 24 26 26 26 26 25 26 31 27 28 0 357 351 119 320 314 327 334 340 336 328 329 331 340
159 159 163 163 155 146 139 129 132 141 148 139 78 72 48 33 30 25 17 17 21 19 18 15 16 22 19 16 5 5 5 349 331 327 311 324 322 330 324 332 321 330 329